Time,TemperatureF,DewpointF,PressureIn,WindDirection,WindDirectionDegrees,WindSpeedMPH,WindSpeedGustMPH,Humidity,HourlyPrecipIn,Conditions,Clouds,dailyrainin,SoftwareType,DateUTC
2014-09-16 00:12:00,71.3,48.0,29.81,SSE,163,0.0,0.0,43,0.00,,,0.00,weatherlink.com 1.10,2014-09-16 07:12:00,
2014-09-16 00:27:00,71.5,47.0,29.81,SSE,163,0.0,0.0,42,0.00,,,0.00,weatherlink.com 1.10,2014-09-16 07:27:00,
2014-09-16 00:42:00,71.6,47.0,29.81,SSE,163,0.0,0.0,42,0.00,,,0.00,weatherlink.com 1.10,2014-09-16 07:42:00,
2014-09-16 00:57:00,71.6,47.0,29.81,SSE,163,0.0,0.0,41,0.00,,,0.00,weatherlink.com 1.10,2014-09-16 07:57:00,
2014-09-16 01:12:00,71.4,47.0,29.81,SSE,163,0.0,0.0,42,0.00,,,0.00,weatherlink.com 1.10,2014-09-16 08:12:00,
2014-09-16 01:27:00,71.0,47.0,29.81,SSE,167,0.0,1.0,43,0.00,,,0.00,weatherlink.com 1.10,2014-09-16 08:27:00,
2014-09-16 01:42:00,70.3,46.0,29.81,SSE,167,0.0,0.0,42,0.00,,,0.00,weatherlink.com 1.10,2014-09-16 08:42:00,
2014-09-16 01:57:00,69.8,46.0,29.81,SSE,167,0.0,0.0,43,0.00,,,0.00,weatherlink.com 1.10,2014-09-16 08:57:00,
2014-09-16 02:12:00,69.8,46.0,29.81,WSW,250,0.0,2.0,43,0.00,,,0.00,weatherlink.com 1.10,2014-09-16 09:12:00,
2014-09-16 02:27:00,69.8,46.0,29.80,WSW,250,0.0,0.0,43,0.00,,,0.00,weatherlink.com 1.10,2014-09-16 09:27:00,
2014-09-16 02:42:00,69.7,47.0,29.81,WSW,250,0.0,0.0,44,0.00,,,0.00,weatherlink.com 1.10,2014-09-16 09:42:00,
2014-09-16 02:57:00,69.7,47.0,29.81,WSW,250,0.0,1.0,44,0.00,,,0.00,weatherlink.com 1.10,2014-09-16 09:57:00,
2014-09-16 03:12:00,69.5,47.0,29.80,WSW,252,0.0,1.0,44,0.00,,,0.00,weatherlink.com 1.10,2014-09-16 10:12:00,
2014-09-16 03:27:00,69.4,47.0,29.80,WSW,252,0.0,1.0,45,0.00,,,0.00,weatherlink.com 1.10,2014-09-16 10:27:00,
2014-09-16 03:42:00,69.4,47.0,29.80,WSW,252,0.0,0.0,45,0.00,,,0.00,weatherlink.com 1.10,2014-09-16 10:42:00,
2014-09-16 04:32:00,69.5,47.0,29.79,West,269,0.0,0.0,45,0.00,,,0.00,weatherlink.com 1.10,2014-09-16 11:32:00,
2014-09-16 04:42:00,69.4,47.0,29.79,West,269,0.0,0.0,45,0.00,,,0.00,weatherlink.com 1.10,2014-09-16 11:42:00,
2014-09-16 04:57:00,69.3,47.0,29.79,West,269,0.0,0.0,45,0.00,,,0.00,weatherlink.com 1.10,2014-09-16 11:57:00,
2014-09-16 05:12:00,69.4,47.0,29.79,West,269,0.0,0.0,45,0.00,,,0.00,weatherlink.com 1.10,2014-09-16 12:12:00,
2014-09-16 05:27:00,69.5,47.0,29.79,West,269,1.0,1.0,45,0.00,,,0.00,weatherlink.com 1.10,2014-09-16 12:27:00,
2014-09-16 05:42:00,69.6,47.0,29.80,West,269,0.0,0.0,44,0.00,,,0.00,weatherlink.com 1.10,2014-09-16 12:42:00,
2014-09-16 05:57:00,69.6,47.0,29.80,West,269,0.0,1.0,44,0.00,,,0.00,weatherlink.com 1.10,2014-09-16 12:57:00,
2014-09-16 06:12:00,69.5,47.0,29.80,West,269,0.0,0.0,44,0.00,,,0.00,weatherlink.com 1.10,2014-09-16 13:12:00,
2014-09-16 06:27:00,69.6,47.0,29.80,West,269,0.0,0.0,44,0.00,,,0.00,weatherlink.com 1.10,2014-09-16 13:27:00,
2014-09-16 06:42:00,69.6,47.0,29.80,West,269,0.0,0.0,44,0.00,,,0.00,weatherlink.com 1.10,2014-09-16 13:42:00,
2014-09-16 06:57:00,69.7,47.0,29.80,West,269,0.0,0.0,44,0.00,,,0.00,weatherlink.com 1.10,2014-09-16 13:57:00,
2014-09-16 07:12:00,70.0,47.0,29.80,West,269,0.0,0.0,44,0.00,,,0.00,weatherlink.com 1.10,2014-09-16 14:12:00,
2014-09-16 07:27:00,70.7,47.0,29.80,West,269,0.0,0.0,43,0.00,,,0.00,weatherlink.com 1.10,2014-09-16 14:27:00,
2014-09-16 07:42:00,71.7,49.0,29.80,West,269,0.0,0.0,44,0.00,,,0.00,weatherlink.com 1.10,2014-09-16 14:42:00,
2014-09-16 07:57:00,72.7,49.0,29.81,West,269,0.0,0.0,44,0.00,,,0.00,weatherlink.com 1.10,2014-09-16 14:57:00,
2014-09-16 08:12:00,73.7,50.0,29.81,NW,326,0.0,1.0,44,0.00,,,0.00,weatherlink.com 1.10,2014-09-16 15:12:00,
2014-09-16 08:27:00,75.7,51.0,29.81,NNW,333,0.0,0.0,42,0.00,,,0.00,weatherlink.com 1.10,2014-09-16 15:27:00,
2014-09-16 08:42:00,78.5,52.0,29.81,NNW,333,0.0,1.0,40,0.00,,,0.00,weatherlink.com 1.10,2014-09-16 15:42:00,
2014-09-16 08:57:00,80.8,52.0,29.81,East,94,0.0,1.0,37,0.00,,,0.00,weatherlink.com 1.10,2014-09-16 15:57:00,
2014-09-16 09:12:00,82.1,52.0,29.80,ESE,123,0.0,2.0,35,0.00,,,0.00,weatherlink.com 1.10,2014-09-16 16:12:00,
2014-09-16 09:27:00,83.1,52.0,29.80,NE,40,0.0,4.0,34,0.00,,,0.00,weatherlink.com 1.10,2014-09-16 16:27:00,
2014-09-16 09:42:00,83.2,52.0,29.80,South,175,0.0,3.0,34,0.00,,,0.00,weatherlink.com 1.10,2014-09-16 16:42:00,
2014-09-16 09:57:00,83.3,52.0,29.80,North,360,0.0,5.0,34,0.00,,,0.00,weatherlink.com 1.10,2014-09-16 16:57:00,
2014-09-16 10:27:00,83.0,53.0,29.79,SE,144,0.0,5.0,36,0.00,,,0.00,weatherlink.com 1.10,2014-09-16 17:27:00,
2014-09-16 10:43:00,83.6,53.0,29.79,WSW,242,0.0,7.0,35,0.00,,,0.00,weatherlink.com 1.10,2014-09-16 17:43:00,
2014-09-16 10:58:00,83.9,53.0,29.79,NE,35,1.0,6.0,35,0.00,,,0.00,weatherlink.com 1.10,2014-09-16 17:58:00,
2014-09-16 11:13:00,84.1,54.0,29.79,SE,144,2.0,9.0,35,0.00,,,0.00,weatherlink.com 1.10,2014-09-16 18:13:00,
2014-09-16 11:28:00,84.5,54.0,29.79,NE,53,2.0,7.0,35,0.00,,,0.00,weatherlink.com 1.10,2014-09-16 18:28:00,
2014-09-16 11:43:00,84.4,53.0,29.78,East,94,0.0,9.0,34,0.00,,,0.00,weatherlink.com 1.10,2014-09-16 18:43:00,
2014-09-16 11:58:00,83.7,53.0,29.78,NNW,333,0.0,8.0,35,0.00,,,0.00,weatherlink.com 1.10,2014-09-16 18:58:00,
2014-09-16 12:13:00,83.8,53.0,29.77,East,89,1.0,4.0,35,0.00,,,0.00,weatherlink.com 1.10,2014-09-16 19:13:00,
2014-09-16 12:28:00,84.0,54.0,29.76,ENE,67,8.0,8.0,36,0.00,,,0.00,weatherlink.com 1.10,2014-09-16 19:28:00,
2014-09-16 12:43:00,83.2,55.0,29.75,ENE,69,1.0,7.0,38,0.00,,,0.00,weatherlink.com 1.10,2014-09-16 19:43:00,
2014-09-16 12:58:00,82.6,53.0,29.75,NE,53,2.0,7.0,36,0.00,,,0.00,weatherlink.com 1.10,2014-09-16 19:58:00,
2014-09-16 13:13:00,83.1,55.0,29.75,ENE,72,1.0,9.0,38,0.00,,,0.00,weatherlink.com 1.10,2014-09-16 20:13:00,
2014-09-16 13:28:00,84.4,56.0,29.75,NNE,14,4.0,7.0,38,0.00,,,0.00,weatherlink.com 1.10,2014-09-16 20:28:00,
2014-09-16 13:43:00,84.1,66.0,29.75,West,263,0.0,5.0,54,0.00,,,0.00,weatherlink.com 1.10,2014-09-16 20:43:00,
2014-09-16 13:58:00,78.9,64.0,29.74,West,261,0.0,3.0,60,0.01,,,0.01,weatherlink.com 1.10,2014-09-16 20:58:00,
2014-09-16 14:13:00,73.3,63.0,29.74,South,188,0.0,0.0,70,0.02,,,0.02,weatherlink.com 1.10,2014-09-16 21:13:00,
2014-09-16 14:28:00,69.9,60.0,29.73,South,190,0.0,0.0,70,0.03,,,0.03,weatherlink.com 1.10,2014-09-16 21:28:00,
2014-09-16 14:43:00,67.8,61.0,29.73,South,190,0.0,0.0,79,0.04,,,0.04,weatherlink.com 1.10,2014-09-16 21:43:00,
2014-09-16 14:58:00,67.6,62.0,29.72,South,190,0.0,0.0,81,0.04,,,0.05,weatherlink.com 1.10,2014-09-16 21:58:00,
2014-09-16 15:13:00,69.1,63.0,29.71,South,189,0.0,0.0,80,0.04,,,0.06,weatherlink.com 1.10,2014-09-16 22:13:00,
2014-09-16 15:28:00,71.2,59.0,29.71,South,189,0.0,0.0,66,0.03,,,0.06,weatherlink.com 1.10,2014-09-16 22:28:00,
2014-09-16 15:43:00,74.5,61.0,29.71,North,355,0.0,0.0,62,0.03,,,0.07,weatherlink.com 1.10,2014-09-16 22:43:00,
2014-09-16 15:58:00,76.6,59.0,29.72,ENE,74,3.0,3.0,54,0.03,,,0.08,weatherlink.com 1.10,2014-09-16 22:58:00,
2014-09-16 16:13:00,76.1,59.0,29.72,NNW,340,0.0,8.0,56,0.02,,,0.08,weatherlink.com 1.10,2014-09-16 23:13:00,
2014-09-16 16:28:00,74.2,59.0,29.72,ENE,59,1.0,6.0,59,0.03,,,0.09,weatherlink.com 1.10,2014-09-16 23:28:00,
2014-09-16 16:43:00,73.7,59.0,29.72,SSE,155,2.0,10.0,60,0.02,,,0.09,weatherlink.com 1.10,2014-09-16 23:43:00,
2014-09-16 16:58:00,72.9,59.0,29.72,SSE,163,1.0,5.0,61,0.02,,,0.10,weatherlink.com 1.10,2014-09-16 23:58:00,
2014-09-16 17:13:00,72.1,58.0,29.72,SE,141,0.0,6.0,61,0.02,,,0.10,weatherlink.com 1.10,2014-09-17 00:13:00,
2014-09-16 17:28:00,71.8,58.0,29.72,SSW,206,0.0,4.0,63,0.01,,,0.10,weatherlink.com 1.10,2014-09-17 00:28:00,
2014-09-16 17:43:00,71.5,58.0,29.73,SE,131,1.0,3.0,63,0.01,,,0.10,weatherlink.com 1.10,2014-09-17 00:43:00,
2014-09-16 17:58:00,71.4,58.0,29.73,ESE,105,0.0,3.0,63,0.01,,,0.11,weatherlink.com 1.10,2014-09-17 00:58:00,
2014-09-16 18:13:00,71.2,58.0,29.73,SE,124,1.0,5.0,64,0.01,,,0.11,weatherlink.com 1.10,2014-09-17 01:13:00,
2014-09-16 18:28:00,70.7,58.0,29.73,SW,219,1.0,4.0,64,0.01,,,0.11,weatherlink.com 1.10,2014-09-17 01:28:00,
2014-09-16 18:43:00,70.4,58.0,29.73,SE,124,2.0,5.0,65,0.01,,,0.11,weatherlink.com 1.10,2014-09-17 01:43:00,
2014-09-16 18:58:00,70.1,58.0,29.74,ENE,60,1.0,6.0,66,0.00,,,0.11,weatherlink.com 1.10,2014-09-17 01:58:00,
2014-09-16 19:13:00,69.7,58.0,29.74,East,92,0.0,3.0,67,0.00,,,0.11,weatherlink.com 1.10,2014-09-17 02:13:00,
2014-09-16 19:28:00,69.3,58.0,29.74,ESE,115,0.0,5.0,68,0.00,,,0.11,weatherlink.com 1.10,2014-09-17 02:28:00,
2014-09-16 19:43:00,69.0,58.0,29.75,SSE,148,0.0,3.0,69,0.00,,,0.11,weatherlink.com 1.10,2014-09-17 02:43:00,
2014-09-16 19:58:00,68.8,59.0,29.75,SE,144,0.0,5.0,70,0.00,,,0.11,weatherlink.com 1.10,2014-09-17 02:58:00,
2014-09-16 20:13:00,68.5,59.0,29.76,East,87,0.0,2.0,71,0.00,,,0.11,weatherlink.com 1.10,2014-09-17 03:13:00,
2014-09-16 20:28:00,68.3,59.0,29.76,SE,136,0.0,3.0,71,0.00,,,0.11,weatherlink.com 1.10,2014-09-17 03:28:00,